COSMOS 2426 (717)

Last updated on Tue Jun 16 2020 05:15:31 GMT+0000 (Coordinated Universal Time)

1 29671U 06062B 20167.87717350 -.00000036 00000-0 10000-3 0 9997 2 29671 64.9682 267.9658 0020358 174.3743 306.2370 2.12962520104861
UTC large
Height (km)
Speed (km/s)
/
Latitude / Longitude
Inclination (degrees)
Orbital Period (minutes)
Azimuth
Elevation
Range (km)
Doppler Factor

Next 0 passes for location: London (51.5072 / 0.1276)

Sorry there are no passes over London.